Weather History for Tampa Executive, FL

Change the Weather History Date:

Saturday, October 1, 2011

  Actual Average (KTPA) Record (KTPA)
Temperature  
Mean Temperature 76 °F 80 °F  
Max Temperature 86 °F 87 °F 92 °F (2002)
Min Temperature 66 °F 72 °F 52 °F (1920)
Degree Days  
Heating Degree Days 0 0  
Month to date heating degree days 0  
Since 1 July heating degree days 0  
Cooling Degree Days 11 15  
Month to date cooling degree days 15  
Year to date cooling degree days 3031  
Growing Degree Days 26 (Base 50)    
Moisture  
Dew Point 58 °F    
Average Humidity 62    
Maximum Humidity 94    
Minimum Humidity 30    
Precipitation  
Precipitation 0.00 in 0.12 in 2.36 in (1946)
Month to date precipitation 0.12  
Year to date precipitation 40.14  
Sea Level Pressure  
Sea Level Pressure 29.87 in    
Wind  
Wind Speed 3 mph (North)    
Max Wind Speed 9 mph    
Max Gust Speed 17 mph    
Visibility 9 miles    
Events      
T = Trace of Precipitation, MM = Missing Value Source: NWS Daily Summary

Daily Weather History Graph

Daily Weather History Graph

Search for Another Location

Airport:

Trip Planner

Search our weather history database for the weather conditions in past years. The results will help you decide how hot, cold, wet, or windy it might be!

Date:

Astronomy

Oct. 01, 2011 Rise Set
Actual Time 7:22 AM EDT 7:15 PM EDT
Civil Twilight 6:58 AM EDT 7:39 PM EDT
Nautical Twilight 6:31 AM EDT 8:06 PM EDT
Astronomical Twilight 6:04 AM EDT 8:33 PM EDT
Moon 11:58 AM EDT (10/1) 10:40 PM EDT (10/1)
Length of Visible Light 12h 40m
Length of Day
11h 53m
Waxing Crescent, 24% of the Moon is Illuminated
Oct 1
Waxing Crescent
Oct 3
First Quarter
Oct 11
Full
Oct 19
Last Quarter
Oct 26
New

Hourly Weather History & Observations

Time (EDT) Temp. Heat Index Dew Point Humidity Pressure Visibility Wind Dir Wind Speed Gust Speed Precip Events Conditions
12:15 AM 68.0 °F - 64.4 °F 88% 29.84 in 7.0 mi Calm Calm - N/A   Clear
12:35 AM 68.0 °F - 66.2 °F 94% 29.83 in 7.0 mi Calm Calm - N/A   Clear
12:55 AM 68.0 °F - 66.2 °F 94% 29.83 in 7.0 mi Calm Calm - N/A   Clear
1:15 AM 68.0 °F - 64.4 °F 88% 29.83 in 7.0 mi Calm Calm - N/A   Clear
1:35 AM 68.0 °F - 64.4 °F 88% 29.83 in 7.0 mi Calm Calm - N/A   Clear
1:55 AM 68.0 °F - 64.4 °F 88% 29.83 in 4.0 mi Calm Calm - N/A   Clear
2:15 AM 68.0 °F - 64.4 °F 88% 29.82 in 5.0 mi Calm Calm - N/A   Clear
2:35 AM 68.0 °F - 64.4 °F 88% 29.82 in 7.0 mi Calm Calm - N/A   Clear
2:55 AM 68.0 °F - 64.4 °F 88% 29.82 in 7.0 mi Calm Calm - N/A   Clear
3:15 AM 66.2 °F - 64.4 °F 94% 29.82 in 5.0 mi Calm Calm - N/A   Clear
3:35 AM 66.2 °F - 64.4 °F 94% 29.81 in 4.0 mi Calm Calm - N/A   Clear
3:55 AM 66.2 °F - 64.4 °F 94% 29.81 in 5.0 mi Calm Calm - N/A   Clear
4:15 AM 66.2 °F - 64.4 °F 94% 29.81 in 5.0 mi Calm Calm - N/A   Clear
4:35 AM 68.0 °F - 66.2 °F 94% 29.83 in 5.0 mi North 6.9 mph - N/A   Clear
4:55 AM 66.2 °F - 64.4 °F 94% 29.83 in 10.0 mi North 8.1 mph - N/A   Clear
5:15 AM 68.0 °F - 62.6 °F 83% 29.83 in 10.0 mi NNE 6.9 mph - N/A   Clear
5:35 AM 69.8 °F - 62.6 °F 78% 29.84 in 10.0 mi NNE 4.6 mph - N/A   Clear
5:55 AM 68.0 °F - 60.8 °F 78% 29.84 in 10.0 mi North 5.8 mph - N/A   Clear
6:15 AM 68.0 °F - 59.0 °F 73% 29.85 in 10.0 mi NNE 4.6 mph - N/A   Clear
6:35 AM 68.0 °F - 59.0 °F 73% 29.86 in 10.0 mi North 4.6 mph - N/A   Clear
6:55 AM 68.0 °F - 59.0 °F 73% 29.87 in 10.0 mi NNE 3.5 mph - N/A   Clear
7:15 AM 66.2 °F - 57.2 °F 73% 29.87 in 10.0 mi North 3.5 mph - N/A   Clear
7:35 AM 66.2 °F - 55.4 °F 68% 29.87 in 10.0 mi North 4.6 mph - N/A   Clear
7:55 AM 66.2 °F - 55.4 °F 68% 29.88 in 10.0 mi North 3.5 mph - N/A   Clear
8:15 AM 68.0 °F - 55.4 °F 64% 29.88 in 10.0 mi Calm Calm - N/A   Clear
8:35 AM 68.0 °F - 55.4 °F 64% 29.89 in 10.0 mi NNE 3.5 mph - N/A   Clear
8:55 AM 69.8 °F - 55.4 °F 60% 29.90 in 10.0 mi NNE 4.6 mph - N/A   Clear
9:15 AM 71.6 °F - 55.4 °F 57% 29.91 in 10.0 mi NE 4.6 mph - N/A   Clear
9:35 AM 71.6 °F - 55.4 °F 57% 29.91 in 10.0 mi NNE 4.6 mph - N/A   Clear
9:55 AM 73.4 °F - 53.6 °F 50% 29.92 in 10.0 mi NNE 6.9 mph - N/A   Clear
10:35 AM 73.4 °F - 53.6 °F 50% 29.93 in 10.0 mi NNE 9.2 mph - N/A   Clear
10:55 AM 77.0 °F - 53.6 °F 44% 29.93 in 10.0 mi North - - N/A   Clear
11:15 AM 77.0 °F - 53.6 °F 44% 29.93 in 10.0 mi NE 5.8 mph - N/A   Clear
11:35 AM 77.0 °F - 53.6 °F 44% 29.94 in 10.0 mi North 5.8 mph 17.3 mph N/A   Clear
11:55 AM 78.8 °F - 55.4 °F 44% 29.94 in 10.0 mi North 8.1 mph - N/A   Clear
12:15 PM 78.8 °F - 53.6 °F 42% 29.93 in 10.0 mi North 3.5 mph - N/A   Clear
12:35 PM 80.6 °F 80.3 °F 53.6 °F 39% 29.93 in 10.0 mi North 5.8 mph - N/A   Clear
12:55 PM 80.6 °F 80.3 °F 53.6 °F 39% 29.93 in 10.0 mi North 3.5 mph - N/A   Clear
1:15 PM 82.4 °F 81.7 °F 55.4 °F 39% 29.93 in 10.0 mi North 3.5 mph - N/A   Clear
1:55 PM 82.4 °F 81.7 °F 55.4 °F 39% 29.91 in 10.0 mi NNE 3.5 mph - N/A   Clear
2:15 PM 82.4 °F 81.4 °F 53.6 °F 37% 29.90 in 10.0 mi WNW 6.9 mph - N/A   Clear
2:55 PM 82.4 °F 81.7 °F 55.4 °F 39% 29.89 in 10.0 mi NNW 6.9 mph - N/A   Clear
3:35 PM 84.2 °F 82.8 °F 53.6 °F 35% 29.88 in 10.0 mi North 6.9 mph - N/A   Clear
3:55 PM 86.0 °F 84.2 °F 53.6 °F 33% 29.87 in 10.0 mi NNW 4.6 mph - N/A   Clear
4:15 PM 86.0 °F 84.2 °F 53.6 °F 33% 29.87 in 10.0 mi Calm Calm - N/A   Clear
4:35 PM 84.2 °F - 51.8 °F 33% 29.87 in 10.0 mi NW 8.1 mph - N/A   Clear
4:55 PM 84.2 °F - 50.0 °F 30% 29.87 in 10.0 mi NNW 6.9 mph - N/A   Clear
5:15 PM 82.4 °F - 51.8 °F 35% 29.87 in 10.0 mi NNW 6.9 mph - N/A   Clear
5:35 PM 80.6 °F 80.3 °F 53.6 °F 39% 29.88 in 10.0 mi NNW 8.1 mph - N/A   Clear
5:55 PM 80.6 °F 80.5 °F 55.4 °F 42% 29.88 in 10.0 mi NNW 8.1 mph - N/A   Clear
6:15 PM 78.8 °F - 55.4 °F 44% 29.89 in 10.0 mi NNW 6.9 mph - N/A   Clear
6:35 PM 77.0 °F - 57.2 °F 50% 29.89 in 10.0 mi NNW 5.8 mph - N/A   Clear
6:55 PM 77.0 °F - 57.2 °F 50% 29.90 in 10.0 mi NNW 4.6 mph - N/A   Clear
7:15 PM 73.4 °F - 59.0 °F 61% 29.91 in 10.0 mi NNW 6.9 mph - N/A   Clear
7:35 PM 73.4 °F - 57.2 °F 57% 29.91 in 10.0 mi NNW 4.6 mph - N/A   Clear
7:55 PM 71.6 °F - 59.0 °F 64% 29.92 in 10.0 mi NNW 4.6 mph - N/A   Clear
8:15 PM 69.8 °F - 59.0 °F 68% 29.92 in 10.0 mi NNW 4.6 mph - N/A   Clear
8:35 PM 69.8 °F - 59.0 °F 68% 29.93 in 10.0 mi NNW 4.6 mph - N/A   Clear
8:55 PM 69.8 °F - 59.0 °F 68% 29.93 in 10.0 mi NNW 4.6 mph - N/A   Clear
9:15 PM 68.0 °F - 59.0 °F 73% 29.94 in 10.0 mi NNW 4.6 mph - N/A   Clear
9:35 PM 68.0 °F - 59.0 °F 73% 29.95 in 10.0 mi North 4.6 mph - N/A   Clear
9:55 PM 68.0 °F - 59.0 °F 73% 29.96 in 10.0 mi NNW 3.5 mph - N/A   Clear
10:15 PM 66.2 °F - 59.0 °F 78% 29.97 in 10.0 mi North 3.5 mph - N/A   Clear
10:55 PM 64.4 °F - 57.2 °F 77% 29.99 in 10.0 mi Calm Calm - N/A   Clear
11:15 PM 64.4 °F - 55.4 °F 73% 29.99 in 10.0 mi North 4.6 mph - N/A   Clear
11:35 PM 64.4 °F - 53.6 °F 68% 29.99 in 10.0 mi North 5.8 mph - N/A   Clear
11:55 PM 64.4 °F - 51.8 °F 64% 29.99 in 10.0 mi NNE 4.6 mph - N/A   Clear